Pittsfield, IL

10:15 AM CDT on August 22, 2017 (GMT -0500)
Pittsfield Penstone Municipal

Weather History for KPPQ - January, 2014

Change the Weather History Date:

Thursday, January 16, 2014

  Actual Average (KUIN) Record (KUIN)
Temperature  
Mean Temperature 31 °F -  
Max Temperature 45 °F 34 °F 69 °F (1990)
Min Temperature 16 °F 16 °F -19 °F (1977)
Degree Days  
Heating Degree Days 34    
Moisture  
Dew Point 24 °F    
Average Humidity 72    
Maximum Humidity 92    
Minimum Humidity 42    
Precipitation  
Precipitation 0.00 in - - ()
Sea Level Pressure  
Sea Level Pressure 29.75 in    
Wind  
Wind Speed 12 mph (WSW)    
Max Wind Speed 26 mph    
Max Gust Speed 38 mph    
Visibility 9 miles    
Events Rain , Snow    
Averages and records for this station are not official NWS values.
T = Trace of Precipitation, MM = Missing Value Source: NWS Daily Summary

Daily Weather History Graph

Daily Weather History Graph

Search for Another Location

Airport or City:

Trip Planner

Search our weather history database for the weather conditions in past years. The results will help you decide how hot, cold, wet, or windy it might be!

Date:

Astronomy

Jan. 16, 2014 Rise Set
Actual Time 7:21 AM CST 5:04 PM CST
Civil Twilight 6:52 AM CST 5:33 PM CST
Nautical Twilight 6:19 AM CST 6:07 PM CST
Astronomical Twilight 5:46 AM CST 6:39 PM CST
Moon 5:56 PM CST (1/16) 7:15 AM CST (1/16)
Length of Visible Light 10h 41m
Length of Day
9h 42m
Full, 100% of the Moon is Illuminated
Jan 16
Full
Jan 23
Last Quarter
Jan 30
New
Feb 6
First Quarter
Feb 14
Full

Hourly Weather History & Observations

Time (CST) Temp. Windchill Dew Point Humidity Pressure Visibility Wind Dir Wind Speed Gust Speed Precip Events Conditions
12:15 AM 27.5 °F 19.3 °F 16.0 °F 62% 29.88 in 10.0 mi South 8.1 mph - N/A   Overcast
12:35 AM 27.9 °F 18.4 °F 16.2 °F 62% 29.87 in 10.0 mi South 10.4 mph - N/A   Overcast
12:55 AM 27.9 °F 19.8 °F 16.7 °F 63% 29.87 in 10.0 mi South 8.1 mph - N/A Snow Light Snow
1:15 AM 27.7 °F 18.8 °F 18.1 °F 67% 29.86 in 7.0 mi South 9.2 mph - N/A Snow Light Snow
1:35 AM 27.1 °F 18.2 °F 20.3 °F 75% 29.84 in 3.0 mi South 9.2 mph - N/A Snow Light Snow
1:55 AM 26.8 °F 17.1 °F 22.5 °F 84% 29.83 in 2.0 mi South 10.4 mph - N/A Snow Light Snow
2:15 AM 26.6 °F 16.2 °F 23.7 °F 89% 29.83 in 1.5 mi South 11.5 mph - N/A Snow Light Snow
2:35 AM 26.6 °F 16.2 °F 24.3 °F 91% 29.80 in 1.8 mi South 11.5 mph - N/A Snow Light Snow
2:55 AM 27.0 °F 15.6 °F 24.8 °F 92% 29.79 in 2.5 mi SSW 13.8 mph 19.6 mph N/A Rain Light Freezing Rain
3:15 AM 27.5 °F 16.3 °F 25.3 °F 92% 29.76 in 7.0 mi South 13.8 mph 19.6 mph N/A Rain Light Freezing Rain
3:35 AM 27.9 °F 16.8 °F 25.5 °F 91% 29.75 in 10.0 mi SSW 13.8 mph 19.6 mph N/A Rain Light Freezing Rain
3:55 AM 28.0 °F 18.1 °F 25.7 °F 91% 29.75 in 10.0 mi SSW 11.5 mph 18.4 mph N/A   Light Freezing Rain
4:15 AM 28.2 °F 18.3 °F 25.7 °F 90% 29.75 in 10.0 mi SSW 11.5 mph 18.4 mph N/A   Overcast
4:35 AM 28.9 °F 19.8 °F 26.4 °F 90% 29.73 in 10.0 mi South 10.4 mph 17.3 mph N/A   Scattered Clouds
4:55 AM 29.1 °F 20.0 °F 26.4 °F 90% 29.72 in 10.0 mi SSW 10.4 mph - N/A   Clear
5:15 AM 29.5 °F 19.3 °F 26.6 °F 89% 29.71 in 10.0 mi SSW 12.7 mph - N/A   Clear
5:35 AM 30.0 °F 21.7 °F 26.6 °F 87% 29.71 in 10.0 mi SSW 9.2 mph - N/A   Clear
5:55 AM 30.2 °F 20.8 °F 26.4 °F 86% 29.68 in 10.0 mi South 11.5 mph - N/A   Clear
6:15 AM 30.9 °F 22.8 °F 26.2 °F 83% 29.68 in 10.0 mi SSW 9.2 mph - N/A   Scattered Clouds
6:35 AM 31.1 °F 23.1 °F 25.9 °F 81% 29.70 in 10.0 mi SW 9.2 mph - N/A   Mostly Cloudy
6:55 AM 31.8 °F 23.3 °F 25.5 °F 78% 29.69 in 10.0 mi SSW 10.4 mph - N/A   Overcast
7:15 AM 32.0 °F 24.8 °F 25.3 °F 76% 29.69 in 10.0 mi SSW 8.1 mph - N/A   Overcast
7:35 AM 32.2 °F 25.0 °F 24.8 °F 74% 29.68 in 10.0 mi SSW 8.1 mph - N/A   Overcast
7:55 AM 33.1 °F 24.4 °F 24.6 °F 71% 29.69 in 10.0 mi SW 11.5 mph 16.1 mph N/A   Overcast
8:15 AM 32.9 °F 23.2 °F 23.9 °F 69% 29.69 in 10.0 mi SW 13.8 mph 19.6 mph N/A   Scattered Clouds
8:35 AM 33.3 °F 25.1 °F 23.9 °F 69% 29.69 in 10.0 mi SW 10.4 mph 16.1 mph N/A   Scattered Clouds
8:55 AM 33.8 °F 26.4 °F 24.3 °F 68% 29.70 in 10.0 mi SW 9.2 mph - N/A   Scattered Clouds
9:15 AM 34.7 °F 28.1 °F 25.3 °F 69% 29.70 in 10.0 mi SW 8.1 mph - N/A   Scattered Clouds
9:35 AM 36.0 °F 28.5 °F 26.2 °F 68% 29.71 in 10.0 mi SW 10.4 mph 16.1 mph N/A   Scattered Clouds
9:55 AM 37.2 °F 30.6 °F 26.8 °F 66% 29.71 in 10.0 mi WSW 9.2 mph - N/A   Scattered Clouds
10:15 AM 37.9 °F 30.0 °F 27.1 °F 65% 29.70 in 10.0 mi WSW 12.7 mph 17.3 mph N/A   Mostly Cloudy
10:35 AM 39.0 °F 31.8 °F 27.9 °F 64% 29.70 in 10.0 mi West 11.5 mph - N/A   Overcast
10:55 AM 39.9 °F 32.9 °F 28.2 °F 63% 29.69 in 10.0 mi West 11.5 mph 16.1 mph N/A   Overcast
11:15 AM 40.6 °F 34.3 °F 28.6 °F 62% 29.68 in 10.0 mi West 10.4 mph 18.4 mph N/A   Overcast
11:35 AM 40.8 °F 34.5 °F 28.6 °F 62% 29.68 in 10.0 mi WSW 10.4 mph - N/A   Mostly Cloudy
11:55 AM 42.1 °F 34.9 °F 29.3 °F 61% 29.67 in 10.0 mi West 13.8 mph 19.6 mph N/A   Mostly Cloudy
12:15 PM 42.4 °F 34.4 °F 29.1 °F 59% 29.66 in 10.0 mi West 17.3 mph 21.9 mph N/A   Mostly Cloudy
12:35 PM 43.0 °F 34.8 °F 28.4 °F 56% 29.66 in 10.0 mi West 18.4 mph 25.3 mph N/A   Overcast
12:55 PM 43.5 °F 35.5 °F 27.9 °F 54% 29.65 in 10.0 mi West 18.4 mph 23.0 mph N/A   Mostly Cloudy
1:15 PM 45.3 °F 36.7 °F 23.5 °F 42% 29.66 in 10.0 mi West 24.2 mph 38.0 mph N/A   Mostly Cloudy
1:35 PM 43.2 °F 35.3 °F 23.5 °F 46% 29.67 in 10.0 mi West 17.3 mph 26.5 mph N/A   Mostly Cloudy
1:55 PM 42.8 °F 34.0 °F 23.2 °F 46% 29.67 in 10.0 mi West 20.7 mph 27.6 mph N/A   Mostly Cloudy
2:35 PM 42.1 °F 33.6 °F 25.7 °F 52% 29.69 in 10.0 mi West 18.4 mph 24.2 mph N/A   Overcast
2:55 PM 41.9 °F 32.3 °F 24.8 °F 51% 29.70 in 10.0 mi West 23.0 mph 28.8 mph N/A   Mostly Cloudy
3:15 PM 41.2 °F 33.4 °F 25.0 °F 53% 29.71 in 10.0 mi West 15.0 mph 24.2 mph N/A   Mostly Cloudy
3:35 PM 40.1 °F 31.6 °F 26.1 °F 57% 29.72 in 10.0 mi West 16.1 mph 26.5 mph N/A   Overcast
3:55 PM 39.6 °F 31.3 °F 26.4 °F 59% 29.72 in 10.0 mi West 15.0 mph 19.6 mph N/A   Overcast
4:15 PM 39.2 °F 33.6 °F 27.0 °F 62% 29.72 in 10.0 mi West 8.1 mph 19.6 mph N/A   Overcast
4:35 PM 38.5 °F 31.1 °F 27.9 °F 66% 29.73 in 10.0 mi West 11.5 mph - N/A   Overcast
4:55 PM 37.9 °F 29.6 °F 27.1 °F 65% 29.73 in 10.0 mi West 13.8 mph 20.7 mph N/A   Overcast
5:15 PM 37.4 °F 29.8 °F 27.1 °F 66% 29.73 in 10.0 mi West 11.5 mph 20.7 mph N/A   Mostly Cloudy
5:35 PM 37.0 °F 29.3 °F 27.1 °F 67% 29.73 in 10.0 mi West 11.5 mph 17.3 mph N/A   Clear
5:55 PM 36.7 °F 28.9 °F 26.6 °F 67% 29.73 in 10.0 mi WSW 11.5 mph - N/A   Scattered Clouds
6:15 PM 36.5 °F 28.2 °F 27.3 °F 69% 29.73 in 10.0 mi WSW 12.7 mph - N/A   Scattered Clouds
6:35 PM 36.7 °F 26.6 °F 28.4 °F 72% 29.73 in 10.0 mi WSW 18.4 mph 23.0 mph N/A   Mostly Cloudy
6:55 PM 35.6 °F 28.0 °F 29.7 °F 79% 29.73 in 10.0 mi SW 10.4 mph - N/A   Scattered Clouds
7:15 PM 34.2 °F 26.2 °F 31.6 °F 90% 29.74 in 1.2 mi WSW 10.4 mph 31.1 mph N/A Snow Light Snow
7:35 PM 34.2 °F 25.7 °F 31.3 °F 89% 29.73 in 10.0 mi SW 11.5 mph - N/A   Overcast
7:55 PM 34.0 °F 23.8 °F 30.6 °F 87% 29.73 in 10.0 mi WSW 16.1 mph 20.7 mph N/A   Mostly Cloudy
8:15 PM 34.9 °F 26.6 °F 29.8 °F 82% 29.75 in 10.0 mi West 11.5 mph 20.7 mph N/A   Overcast
8:35 PM 34.3 °F 23.9 °F 26.2 °F 72% 29.76 in 10.0 mi West 17.3 mph 29.9 mph N/A   Overcast
8:55 PM 29.1 °F 15.1 °F 23.7 °F 80% 29.80 in 2.5 mi NW 24.2 mph 36.8 mph N/A   Haze
9:15 PM 26.6 °F 11.1 °F 19.8 °F 75% 29.82 in 10.0 mi NW 26.5 mph 33.4 mph N/A   Overcast
9:35 PM 25.7 °F 11.2 °F 19.6 °F 78% 29.84 in 10.0 mi WNW 21.9 mph 33.4 mph N/A Snow Light Snow
9:55 PM 24.4 °F 11.9 °F 19.0 °F 80% 29.85 in 7.0 mi NW 15.0 mph - N/A Snow Light Snow
10:15 PM 23.9 °F 11.2 °F 14.9 °F 69% 29.85 in 10.0 mi WNW 15.0 mph 24.2 mph N/A   Overcast
10:35 PM 22.1 °F 7.2 °F 16.3 °F 79% 29.86 in 2.0 mi NW 19.6 mph 26.5 mph N/A Snow Light Snow
10:55 PM 20.3 °F 4.0 °F 14.5 °F 78% 29.87 in 3.0 mi WNW 21.9 mph 26.5 mph N/A Snow Light Snow
11:15 PM 18.3 °F 2.6 °F 10.0 °F 70% 29.88 in 7.0 mi NW 18.4 mph 28.8 mph N/A   Overcast
11:35 PM 17.6 °F 1.7 °F 9.3 °F 70% 29.89 in 10.0 mi WNW 18.4 mph 25.3 mph N/A   Overcast
11:55 PM 16.7 °F 1.0 °F 7.9 °F 68% 29.90 in 10.0 mi WNW 17.3 mph 23.0 mph N/A   Overcast